Tracking 33877 objects as of 19-Apr-2026
HD Live streaming from Space Station
objects crossing your sky now

CZ-6A DEB

Track CZ-6A DEB now!
10-day predictions


NORAD ID: 54506
Int'l Code: 2022-151JJ
Perigee: 755.3 km
Apogee: 900.6 km
Inclination: 98.9 °
Period: 101.3 minutes
Semi major axis: 7198 km
RCS: Unknown
Launch date: November 11, 2022
Source: People's Republic of China (PRC)
Launch site: Taiyaun Space Center, China (TSC)

Note: This is SATELLITE DEBRIS
Your satellite tracking list
Your tracking list is empty




NASA's NSSDC Master Catalog

Two Line Element Set (TLE):
1 54506U 22151JJ  26108.59358153  .00001549  00000-0  69375-3 0  9999
2 54506  98.8824 138.5041 0100907  34.6750 326.0951 14.21338686177200
Source of the keplerian elements: AFSPC